IV3CGM-1 Weather Reports


time (UTC)temp
C
wind
direction
speed
KPH
gust
KPH
rain 1hr
cm
rain 24hr
cm
rain mn
cm
humidity
%
barometer
mb
20260506205050 8 150 9.7 14.5 0.00 0.00 0.00 99
20260506204037 8 167 11.3 19.3 0.00 0.00 0.00 99
20260506203049 8 217 12.9 19.3 0.00 0.00 0.00 99
20260506202026 8 210 9.7 17.7 0.00 0.00 0.00 99
20260506201040 8 193 14.5 19.3 0.00 0.00 0.00 99
20260506200047 8 186 11.3 20.9 0.00 0.00 0.00 99
20260506195111 8 167 19.3 20.9 0.00 0.00 0.00 99
20260506194138 8 210 17.7 20.9 0.00 0.00 0.00 99
20260506193200 8 180 12.9 20.9 0.00 0.00 0.00 99
20260506192110 8 193 11.3 20.9 0.00 0.00 0.00 99
20260506191114 7 222 14.5 14.5 0.00 0.00 0.00 99
20260506185048 7 198 12.9 22.5 0.00 0.00 0.00 99
20260506184125 8 204 20.9 20.9 0.00 0.00 0.00 99
20260506183200 7 162 12.9 19.3 0.00 0.00 0.00 99
20260506182225 7 204 17.7 19.3 0.00 0.00 0.00 99
20260506181247 8 210 9.7 17.7 0.00 0.00 0.00 99
20260506180311 8 193 14.5 14.5 0.00 0.00 0.00 99
20260506175347 8 162 11.3 14.5 0.00 0.00 0.00 99
20260506174422 8 167 14.5 14.5 0.00 0.00 0.00 99
20260506173423 8 193 14.5 19.3 0.00 0.00 0.00 99
20260506172413 8 162 14.5 19.3 0.00 0.00 0.00 99
20260506171249 8 204 8.0 14.5 0.00 0.00 0.00 99
20260506170326 8 193 8.0 20.9 0.00 0.00 0.00 99
20260506165136 8 186 11.3 20.9 0.00 0.00 0.00 99
20260506164158 8 156 19.3 20.9 0.00 0.00 0.00 99
20260506163212 8 204 8.0 17.7 0.00 0.00 0.00 99
20260506162223 8 167 14.5 17.7 0.00 0.00 0.00 99
20260506161158 8 174 11.3 11.3 0.00 0.00 0.00 99
20260506160225 8 222 6.4 22.5 0.00 0.00 0.00 99
20260506155222 8 162 14.5 25.7 0.00 0.00 0.00 99
20260506154214 8 174 24.1 25.7 0.00 0.00 0.00 99
20260506153147 8 198 17.7 27.4 0.00 0.00 0.00 99
20260506152110 8 156 19.3 27.4 0.00 0.00 0.00 99
20260506151148 9 127 24.1 27.4 0.00 0.00 0.00 99
20260506150112 8 162 8.0 22.5 0.00 0.00 0.00 99
20260506145113 8 180 20.9 22.5 0.00 0.00 0.00 99
20260506144035 8 162 17.7 20.9 0.00 0.00 0.00 99
20260506143000 8 150 9.7 20.9 0.00 0.00 0.00 99
20260506142037 8 156 14.5 20.9 0.00 0.00 0.00 99
20260506140100 8 162 12.9 24.1 0.00 0.00 0.00 99
20260506134901 8 132 9.7 24.1 0.00 0.00 0.00 99
20260506133550 8 228 11.3 24.1 0.00 0.00 0.00 99
20260506131934 8 156 20.9 24.1 0.00 0.00 0.00 99
20260506130925 8 210 14.5 24.1 0.00 0.00 0.00 99
20260506130001 8 132 20.9 24.1 0.00 0.00 0.00 99
20260506124913 8 217 11.3 25.7 0.00 0.00 0.00 99
20260506123949 8 156 17.7 24.1 0.00 0.00 0.00 99
20260506123000 8 143 9.7 24.1 0.00 0.00 0.00 99
20260506122024 8 167 11.3 25.7 0.00 0.00 0.00 99
20260506120949 8 193 8.0 25.7 0.00 0.00 0.00 99
20260506115848 8 198 19.3 25.7 0.00 0.00 0.00 99
20260506114748 8 167 17.7 30.6 0.00 0.00 0.00 99
20260506113800 8 193 20.9 35.4 0.00 0.00 0.00 99
20260506112836 8 193 8.0 35.4 0.00 0.00 0.00 99
20260506111824 8 186 14.5 27.4 0.00 0.00 0.00 99
20260506105758 8 198 27.4 32.2 0.00 0.00 0.00 99
20260506104724 7 217 17.7 25.7 0.00 0.00 0.00 99
20260506103712 8 180 11.3 25.7 0.00 0.00 0.00 99
20260506102711 8 204 12.9 22.5 0.00 0.00 0.00 99
20260506101637 8 204 14.5 14.5 0.00 0.00 0.00 99
20260506100559 8 156 12.9 17.7 0.00 0.00 0.00 99
20260506095559 8 162 6.4 25.7 0.00 0.00 0.00 99
20260506094535 8 167 19.3 33.8 0.00 0.00 0.00 99
20260506093547 8 120 24.1 33.8 0.00 0.00 0.00 99
20260506092510 8 162 12.9 32.2 0.00 0.00 0.00 99
20260506091511 8 108 20.9 22.5 0.00 0.00 0.00 99
20260506090548 8 127 12.9 14.5 0.00 0.00 0.00 99
20260506085534 8 127 9.7 17.7 0.00 0.00 0.00 99
20260506084533 8 156 12.9 14.5 0.00 0.00 0.00 99
20260506083511 8 108 9.7 14.5 0.00 0.00 0.00 99
20260506082533 8 114 9.7 11.3 0.00 0.00 0.00 99
20260506081534 8 127 11.3 14.5 0.00 0.00 0.00 99
20260506080533 8 127 14.5 14.5 0.00 0.00 0.00 99
20260506073508 8 162 8.0 9.7 0.00 0.00 0.00 99
20260506072544 8 6 0.0 8.0 0.00 0.00 0.00 99
20260506071620 7 62 6.4 14.5 0.00 0.00 0.00 99
20260506070621 7 233 8.0 12.9 0.00 0.00 0.00 99
20260506061546 8 108 3.2 4.8 0.00 0.00 0.00 99
20260506060556 8 288 3.2 6.4 0.00 0.00 0.00 99
20260506050707 7 330 0.0 3.2 0.00 0.00 0.00 99
20260506044722 7 315 6.4 9.7 0.00 0.00 0.00 99
20260506043642 7 315 9.7 11.3 0.00 0.00 0.00 99
20260506042644 7 318 9.7 11.3 0.00 0.00 0.00 99
20260506041555 7 48 0.0 3.2 0.00 0.00 0.00 99
20260506040543 7 18 0.0 3.2 0.00 0.00 0.00 99
20260506035555 7 138 0.0 3.2 0.00 0.00 0.00 99
20260506034610 7 138 0.0 0.0 0.00 0.00 0.00 99
20260506033620 7 288 0.0 3.2 0.00 0.00 0.00 99
20260506032644 7 294 3.2 8.0 0.00 0.00 0.00 99
20260506031708 7 300 6.4 8.0 0.00 0.00 0.00 99
20260506030642 7 281 6.4 6.4 0.00 0.00 0.00 99
20260506025641 7 48 3.2 3.2 0.00 0.00 0.00 99
20260506024632 7 63 0.0 8.0 0.00 0.00 0.00 99
20260506023621 7 63 3.2 8.0 0.00 0.00 0.00 99
20260506022645 7 167 0.0 0.0 0.00 0.00 0.00 99
20260506021658 7 186 0.0 0.0 0.00 0.00 0.00 99
20260506020642 7 300 0.0 6.4 0.00 0.00 0.00 99
20260506015621 7 312 6.4 8.0 0.00 0.00 0.00 99
20260506014658 7 264 3.2 4.8 0.00 0.00 0.00 99
20260506013707 7 217 4.8 9.7 0.00 0.00 0.00 99
20260506012729 7 167 6.4 14.5 0.00 0.00 0.00 99
20260506011709 7 167 8.0 11.3 0.00 0.00 0.00 99
20260506010655 7 167 8.0 14.5 0.00 0.00 0.00 99
20260506005644 7 162 9.7 11.3 0.00 0.00 0.00 99
20260506004642 7 167 4.8 6.4 0.00 0.00 0.00 99
20260506003619 7 222 6.4 11.3 0.00 0.00 0.00 99
20260506002616 7 210 6.4 11.3 0.00 0.00 0.00 99
20260506001657 7 233 9.7 12.9 0.00 0.00 0.00 99
20260506000643 8 180 6.4 12.9 0.00 0.00 0.00 99
20260505235706 8 167 11.3 12.9 0.00 0.00 0.00 99
20260505234616 8 198 8.0 19.3 0.00 0.00 0.00 99
20260505233618 8 180 8.0 17.7 0.00 0.00 0.00 99
20260505232545 8 174 9.7 17.7 0.00 0.00 0.00 99
20260505231507 8 167 9.7 12.9 0.00 0.00 0.00 99
20260505230529 8 138 9.7 14.5 0.00 0.00 0.00 99
20260505225541 8 217 9.7 20.9 0.00 0.00 0.00 99
20260505224618 8 174 19.3 20.9 0.00 0.00 0.00 99
20260505223555 8 174 11.3 20.9 0.00 0.00 0.00 99
20260505222618 8 162 12.9 19.3 0.00 0.00 0.00 99
20260505221552 8 193 9.7 14.5 0.00 0.00 0.00 99
20260505220609 8 186 11.3 20.9 0.00 0.00 0.00 99
20260505215643 8 150 3.2 11.3 0.00 0.00 0.00 99
20260505214643 8 156 9.7 12.9 0.00 0.00 0.00 99
20260505213640 8 180 12.9 17.7 0.00 0.00 0.00 99
20260505212655 8 193 9.7 9.7 0.00 0.00 0.00 99
20260505211708 8 180 8.0 11.3 0.00 0.00 0.00 99
20260505210705 7 167 9.7 11.3 0.00 0.00 0.00 99
20260505205707 8 186 8.0 14.5 0.00 0.00 0.00 99